FW8343 Weather Reports


time (UTC)temp
C
wind
direction
speed
KPH
gust
KPH
rain 1hr
cm
rain 24hr
cm
rain mn
cm
humidity
%
barometer
mb
20260507211008 9 263 6.4 20.9 0.00 0.00 0.00 44 1009.4
20260507210509 9 262 9.7 24.1 0.00 0.00 0.00 45 1009.3
20260507210047 9 229 8.0 24.1 0.00 0.00 0.00 42 1009.3
20260507205508 10 280 6.4 16.1 0.00 0.00 0.00 39 1009.2
20260507205011 10 221 6.4 16.1 0.00 0.00 0.00 42 1009.3
20260507204530 10 251 6.4 16.1 0.00 0.00 0.00 38 1009.3
20260507204008 10 252 3.2 17.7 0.00 0.00 0.00 38 1009.2
20260507203512 10 259 6.4 17.7 0.00 0.00 0.00 40 1009.4
20260507203030 10 281 8.0 16.1 0.00 0.00 0.00 39 1009.3
20260507202511 10 259 6.4 16.1 0.00 0.00 0.00 42 1009.4
20260507202013 10 303 4.8 11.3 0.00 0.00 0.00 42 1009.3
20260507201529 10 286 1.6 12.9 0.00 0.00 0.00 43 1009.5
20260507201009 10 290 4.8 14.5 0.00 0.00 0.00 41 1009.6
20260507200512 9 257 3.2 14.5 0.00 0.00 0.00 43 1009.7
20260507200036 9 277 6.4 19.3 0.00 0.00 0.00 40 1009.7
20260507195512 9 254 3.2 19.3 0.00 0.00 0.00 42 1009.8
20260507195010 9 275 4.8 19.3 0.00 0.00 0.00 42 1009.9
20260507194547 8 259 4.8 16.1 0.00 0.00 0.00 42 1010.0
20260507194010 9 233 6.4 16.1 0.00 0.00 0.00 40 1010.0
20260507193510 9 244 8.0 16.1 0.00 0.00 0.00 38 1010.0
20260507193033 9 267 3.2 9.7 0.00 0.00 0.00 40 1009.9
20260507192510 10 302 1.6 14.5 0.00 0.00 0.00 40 1010.1
20260507192011 9 347 4.8 14.5 0.00 0.00 0.00 40 1010.1
20260507191530 9 229 3.2 22.5 0.00 0.00 0.00 42 1010.0
20260507191008 9 281 8.0 22.5 0.00 0.00 0.00 42 1010.0
20260507190510 9 257 3.2 22.5 0.00 0.00 0.00 43 1010.0
20260507190030 9 288 3.2 22.5 0.00 0.00 0.00 41 1010.0
20260507185509 10 193 8.0 17.7 0.00 0.00 0.00 37 1010.1
20260507185015 10 261 4.8 11.3 0.00 0.00 0.00 40 1010.2
20260507184531 9 247 3.2 14.5 0.00 0.00 0.00 40 1010.1
20260507184010 9 232 3.2 14.5 0.00 0.00 0.00 44 1010.2
20260507183514 8 306 6.4 14.5 0.00 0.00 0.00 42 1010.4
20260507183035 8 288 4.8 17.7 0.00 0.00 0.00 41 1010.3
20260507182510 8 254 3.2 17.7 0.00 0.00 0.00 41 1010.3
20260507182016 9 296 6.4 16.1 0.00 0.00 0.00 39 1010.3
20260507181529 10 0 1.6 16.1 0.00 0.00 0.00 37 1010.4
20260507181015 10 236 6.4 19.3 0.00 0.00 0.00 41 1010.5
20260507180511 9 280 6.4 19.3 0.00 0.00 0.00 43 1010.5
20260507180031 8 287 8.0 19.3 0.00 0.00 0.00 42 1010.6
20260507175507 8 290 4.8 14.5 0.00 0.00 0.00 41 1010.7
20260507175009 8 271 4.8 11.3 0.00 0.00 0.00 41 1010.6
20260507174536 8 230 1.6 12.9 0.00 0.00 0.00 44 1010.7
20260507174009 8 225 3.2 24.1 0.00 0.00 0.00 44 1010.8
20260507173509 8 259 6.4 24.1 0.00 0.00 0.00 44 1010.9
20260507173036 8 273 4.8 14.5 0.00 0.00 0.00 44 1011.0
20260507172509 8 215 1.6 11.3 0.00 0.00 0.00 46 1010.9
20260507172008 8 206 3.2 11.3 0.00 0.00 0.00 42 1010.9
20260507171532 8 0 4.8 11.3 0.00 0.00 0.00 44 1011.0
20260507171011 8 266 3.2 11.3 0.00 0.00 0.00 46 1011.1
20260507170510 7 269 4.8 14.5 0.00 0.00 0.00 47 1011.0
20260507170035 7 273 6.4 14.5 0.00 0.00 0.00 45 1011.1
20260507165510 7 278 4.8 11.3 0.00 0.00 0.00 44 1011.2
20260507165011 7 0 1.6 12.9 0.00 0.00 0.00 48 1011.3
20260507164531 7 0 4.8 12.9 0.00 0.00 0.00 46 1011.3
20260507164013 7 289 3.2 11.3 0.00 0.00 0.00 48 1011.3
20260507163513 7 230 3.2 12.9 0.00 0.00 0.00 49 1011.3
20260507163031 7 0 3.2 14.5 0.00 0.00 0.00 45 1011.3
20260507162509 7 229 4.8 14.5 0.00 0.00 0.00 47 1011.4
20260507162014 7 263 4.8 14.5 0.00 0.00 0.00 46 1011.4
20260507161534 7 280 3.2 12.9 0.00 0.00 0.00 48 1011.4
20260507161009 7 281 4.8 11.3 0.00 0.00 0.00 48 1011.4
20260507160509 7 263 3.2 16.1 0.00 0.00 0.00 49 1011.6
20260507160030 7 261 3.2 16.1 0.00 0.00 0.00 49 1011.5
20260507155513 7 279 4.8 16.1 0.00 0.00 0.00 48 1011.5
20260507155015 7 229 4.8 16.1 0.00 0.00 0.00 48 1011.5
20260507154535 7 263 3.2 12.9 0.00 0.00 0.00 48 1011.6
20260507154012 7 250 1.6 9.7 0.00 0.00 0.00 49 1011.6
20260507153512 7 259 4.8 9.7 0.00 0.00 0.00 47 1011.5
20260507153039 7 267 1.6 12.9 0.00 0.00 0.00 50 1011.6
20260507152512 7 0 0.0 12.9 0.00 0.00 0.00 50 1011.5
20260507152011 7 217 1.6 12.9 0.00 0.00 0.00 51 1011.4
20260507151532 6 0 3.2 12.9 0.00 0.00 0.00 48 1011.6
20260507151011 7 262 3.2 12.9 0.00 0.00 0.00 51 1011.7
20260507150510 7 309 3.2 14.5 0.00 0.00 0.00 49 1011.7
20260507150031 6 254 3.2 14.5 0.00 0.00 0.00 55 1011.8
20260507145509 6 268 4.8 14.5 0.00 0.00 0.00 53 1011.8
20260507145011 7 0 1.6 6.4 0.00 0.00 0.00 54 1011.7
20260507144530 7 218 1.6 9.7 0.00 0.00 0.00 53 1011.8
20260507144008 6 279 1.6 9.7 0.00 0.00 0.00 55 1011.9
20260507143513 6 254 1.6 14.5 0.00 0.00 0.00 54 1012.0
20260507143028 6 265 1.6 14.5 0.00 0.00 0.00 54 1011.8
20260507142512 6 225 4.8 14.5 0.00 0.00 0.00 53 1011.9
20260507142010 6 232 3.2 14.5 0.00 0.00 0.00 57 1012.0
20260507141530 6 230 1.6 14.5 0.00 0.00 0.00 58 1012.0
20260507141011 6 256 6.4 14.5 0.00 0.00 0.00 55 1012.2
20260507140511 5 273 4.8 16.1 0.00 0.00 0.00 59 1012.2
20260507140032 5 244 4.8 16.1 0.00 0.00 0.00 57 1012.2
20260507135509 5 245 3.2 14.5 0.00 0.00 0.00 59 1012.2
20260507135016 5 236 3.2 14.5 0.00 0.00 0.00 59 1012.2
20260507134531 5 263 3.2 14.5 0.00 0.00 0.00 58 1012.2
20260507134010 5 0 3.2 14.5 0.00 0.00 0.00 58 1012.2
20260507133513 5 0 1.6 12.9 0.00 0.00 0.00 62 1012.2
20260507133034 5 282 3.2 12.9 0.00 0.00 0.00 61 1012.3
20260507132513 5 0 3.2 12.9 0.00 0.00 0.00 63 1012.3
20260507132011 5 257 4.8 12.9 0.00 0.00 0.00 63 1012.4
20260507131530 4 220 3.2 12.9 0.00 0.00 0.00 64 1012.3
20260507131012 4 284 4.8 9.7 0.00 0.00 0.00 64 1012.3
20260507130515 4 229 3.2 11.3 0.00 0.00 0.00 67 1012.4
20260507130039 3 257 3.2 11.3 0.00 0.00 0.00 67 1012.4
20260507125513 3 0 1.6 11.3 0.00 0.00 0.00 68 1012.5
20260507125012 3 350 1.6 11.3 0.00 0.00 0.00 68 1012.5
20260507124531 3 250 4.8 11.3 0.00 0.00 0.00 69 1012.4
20260507124011 3 274 1.6 9.7 0.00 0.00 0.00 71 1012.5
20260507123515 2 272 1.6 9.7 0.00 0.00 0.00 71 1012.4
20260507123030 2 272 3.2 9.7 0.00 0.00 0.00 71 1012.4
20260507122510 2 223 3.2 9.7 0.00 0.00 0.00 73 1012.5
20260507122014 2 224 3.2 9.7 0.00 0.00 0.00 73 1012.5
20260507121531 2 215 1.6 8.0 0.00 0.00 0.00 73 1012.4
20260507121012 2 205 1.6 4.8 0.00 0.00 0.00 76 1012.4
20260507120512 1 269 1.6 4.8 0.00 0.00 0.00 74 1012.4
20260507120030 1 269 0.0 4.8 0.00 0.00 0.00 74 1012.4
20260507115509 1 269 0.0 4.8 0.00 0.00 0.00 74 1012.4
20260507115016 1 269 0.0 6.4 0.00 0.00 0.00 73 1012.4
20260507114536 1 0 0.0 6.4 0.00 0.00 0.00 74 1012.3
20260507114018 2 269 0.0 6.4 0.00 0.00 0.00 73 1012.3
20260507113510 2 0 1.6 6.4 0.00 0.00 0.00 73 1012.3
20260507113030 2 0 1.6 4.8 0.00 0.00 0.00 73 1012.3
20260507112514 2 0 0.0 6.4 0.00 0.00 0.00 74 1012.2
20260507112013 2 223 1.6 8.0 0.00 0.00 0.00 73 1012.2
20260507111532 2 223 3.2 8.0 0.00 0.00 0.00 74 1012.2
20260507111010 2 221 1.6 8.0 0.00 0.00 0.00 74 1012.2
20260507110510 2 221 1.6 8.0 0.00 0.00 0.00 77 1012.2
20260507110030 1 221 1.6 8.0 0.00 0.00 0.00 74 1012.2
20260507105511 1 0 1.6 4.8 0.00 0.00 0.00 73 1012.3
20260507105012 1 285 1.6 4.8 0.00 0.00 0.00 73 1012.2
20260507104531 1 285 1.6 4.8 0.00 0.00 0.00 73 1012.2
20260507104011 1 285 1.6 4.8 0.00 0.00 0.00 73 1012.2
20260507103510 1 285 1.6 4.8 0.00 0.00 0.00 73 1012.2
20260507103033 1 0 1.6 4.8 0.00 0.00 0.00 73 1012.1
20260507102515 1 285 1.6 4.8 0.00 0.00 0.00 73 1012.1
20260507102015 1 0 0.0 4.8 0.00 0.00 0.00 73 1012.1
20260507101532 1 285 0.0 6.4 0.00 0.00 0.00 73 1012.1
20260507101009 1 285 1.6 6.4 0.00 0.00 0.00 73 1012.0
20260507100509 1 0 0.0 3.2 0.00 0.00 0.00 73 1012.1
20260507100034 1 285 0.0 4.8 0.00 0.00 0.00 72 1012.1
20260507095510 1 0 0.0 4.8 0.00 0.00 0.00 72 1012.1
20260507095010 1 0 0.0 4.8 0.00 0.00 0.00 72 1012.1
20260507094529 1 285 0.0 3.2 0.00 0.00 0.00 72 1012.1
20260507094010 1 0 0.0 3.2 0.00 0.00 0.00 72 1012.2
20260507093516 1 0 0.0 3.2 0.00 0.00 0.00 72 1012.2
20260507093029 1 285 0.0 3.2 0.00 0.00 0.00 72 1012.1
20260507092518 1 0 0.0 3.2 0.00 0.00 0.00 72 1012.1
20260507092013 1 0 0.0 3.2 0.00 0.00 0.00 72 1012.1
20260507091529 1 285 0.0 3.2 0.00 0.00 0.00 72 1012.1
20260507091011 2 0 0.0 4.8 0.00 0.00 0.00 72 1012.1
20260507090512 2 0 0.0 4.8 0.00 0.00 0.00 71 1012.2
20260507090030 2 0 0.0 3.2 0.00 0.00 0.00 71 1012.2
20260507085512 2 0 0.0 3.2 0.00 0.00 0.00 72 1012.2
20260507085012 2 0 0.0 4.8 0.00 0.00 0.00 71 1012.3
20260507084532 2 0 0.0 4.8 0.00 0.00 0.00 71 1012.3
20260507084009 2 0 0.0 4.8 0.00 0.00 0.00 71 1012.4
20260507083513 2 0 0.0 3.2 0.00 0.00 0.00 71 1012.4
20260507083030 2 0 0.0 3.2 0.00 0.00 0.00 71 1012.4
20260507082510 2 0 0.0 3.2 0.00 0.00 0.00 71 1012.3
20260507082014 2 0 0.0 3.2 0.00 0.00 0.00 71 1012.3
20260507081532 2 285 0.0 3.2 0.00 0.00 0.00 71 1012.4
20260507081013 2 0 0.0 3.2 0.00 0.00 0.00 71 1012.4
20260507080512 2 0 0.0 4.8 0.00 0.00 0.00 70 1012.4
20260507080038 2 0 0.0 4.8 0.00 0.00 0.00 71 1012.4
20260507075511 2 0 0.0 3.2 0.00 0.00 0.00 70 1012.4
20260507075011 2 0 0.0 4.8 0.00 0.00 0.00 70 1012.4
20260507074530 2 0 0.0 4.8 0.00 0.00 0.00 70 1012.5
20260507074014 2 285 0.0 6.4 0.00 0.00 0.00 70 1012.5
20260507073512 2 0 0.0 6.4 0.00 0.00 0.00 69 1012.6
20260507073029 2 285 0.0 6.4 0.00 0.00 0.00 70 1012.6
20260507072510 2 0 0.0 4.8 0.00 0.00 0.00 69 1012.7
20260507072012 2 0 0.0 3.2 0.00 0.00 0.00 70 1012.7
20260507071557 2 0 0.0 3.2 0.00 0.00 0.00 70 1012.7
20260507071011 2 0 0.0 3.2 0.00 0.00 0.00 70 1012.8
20260507070514 2 0 0.0 6.4 0.00 0.00 0.00 68 1012.9
20260507070033 2 0 1.6 6.4 0.00 0.00 0.00 68 1012.9
20260507065509 2 0 0.0 4.8 0.00 0.00 0.00 68 1012.8
20260507065013 2 0 0.0 4.8 0.00 0.00 0.00 68 1012.9
20260507064531 2 0 0.0 1.6 0.00 0.00 0.00 68 1012.9
20260507064013 3 0 0.0 4.8 0.00 0.00 0.00 69 1012.9
20260507063514 3 0 0.0 9.7 0.00 0.00 0.00 68 1013.0
20260507063029 3 0 1.6 9.7 0.00 0.00 0.00 69 1013.0
20260507062516 3 225 3.2 9.7 0.00 0.00 0.00 69 1013.0
20260507062016 3 225 3.2 8.0 0.00 0.00 0.00 70 1013.1
20260507061530 2 225 4.8 8.0 0.00 0.00 0.00 69 1013.2
20260507061011 2 225 1.6 8.0 0.00 0.00 0.00 69 1013.2
20260507060511 2 0 0.0 0.0 0.00 0.00 0.00 69 1013.3
20260507060036 2 0 0.0 0.0 0.00 0.00 0.00 68 1013.3
20260507055509 2 0 0.0 0.0 0.00 0.00 0.00 67 1013.3
20260507055014 2 0 0.0 0.0 0.00 0.00 0.00 68 1013.4
20260507054531 2 0 0.0 1.6 0.00 0.00 0.00 67 1013.4
20260507054014 2 0 0.0 3.2 0.00 0.00 0.00 69 1013.5
20260507053512 2 0 0.0 3.2 0.00 0.00 0.00 67 1013.4
20260507053042 2 273 0.0 3.2 0.00 0.00 0.00 67 1013.5
20260507052510 2 0 0.0 4.8 0.00 0.00 0.00 66 1013.6
20260507052008 2 0 0.0 4.8 0.00 0.00 0.00 66 1013.7
20260507051538 2 273 0.0 4.8 0.00 0.00 0.00 66 1013.6
20260507051009 2 0 0.0 3.2 0.00 0.00 0.00 66 1013.7
20260507050511 2 0 0.0 3.2 0.00 0.00 0.00 66 1013.7
20260507050035 3 0 0.0 4.8 0.00 0.00 0.00 66 1013.8
20260507045509 3 273 1.6 4.8 0.00 0.00 0.00 66 1013.8
20260507045012 3 0 1.6 4.8 0.00 0.00 0.00 66 1013.8
20260507044531 3 273 0.0 3.2 0.00 0.00 0.00 67 1013.9
20260507044012 3 273 0.0 4.8 0.00 0.00 0.00 65 1013.9
20260507043514 3 273 0.0 4.8 0.00 0.00 0.00 66 1013.9
20260507043031 3 273 0.0 4.8 0.00 0.00 0.00 65 1013.9
20260507042512 3 273 0.0 4.8 0.00 0.00 0.00 65 1013.9
20260507042016 3 273 1.6 4.8 0.00 0.00 0.00 65 1014.0
20260507041530 3 273 1.6 4.8 0.00 0.00 0.00 65 1014.0
20260507041010 3 0 1.6 4.8 0.00 0.00 0.00 65 1013.9
20260507040512 3 273 1.6 4.8 0.00 0.00 0.00 65 1014.1
20260507040030 3 273 1.6 4.8 0.00 0.00 0.00 64 1014.1
20260507035510 3 273 1.6 4.8 0.00 0.00 0.00 64 1014.1
20260507035012 3 273 0.0 4.8 0.00 0.00 0.00 65 1014.1
20260507034536 3 273 0.0 4.8 0.00 0.00 0.00 64 1014.2
20260507034011 3 273 0.0 3.2 0.00 0.00 0.00 65 1014.2
20260507033512 3 273 0.0 4.8 0.00 0.00 0.00 64 1014.1
20260507033040 3 273 0.0 4.8 0.00 0.00 0.00 64 1014.3
20260507032511 3 273 0.0 4.8 0.00 0.00 0.00 64 1014.2
20260507032012 3 0 0.0 4.8 0.00 0.00 0.00 64 1014.2
20260507031529 3 273 0.0 3.2 0.00 0.00 0.00 64 1014.2
20260507031013 3 273 0.0 4.8 0.00 0.00 0.00 65 1014.3
20260507030514 3 273 0.0 4.8 0.00 0.00 0.00 63 1014.2
20260507030032 3 0 0.0 3.2 0.00 0.00 0.00 64 1014.2
20260507025511 3 273 0.0 3.2 0.00 0.00 0.00 63 1014.2
20260507025015 3 0 0.0 3.2 0.00 0.00 0.00 62 1014.2
20260507024536 3 273 0.0 3.2 0.00 0.00 0.00 63 1014.2
20260507024009 3 273 0.0 3.2 0.00 0.00 0.00 62 1014.2
20260507023514 3 0 0.0 3.2 0.00 0.00 0.00 62 1014.2
20260507023035 3 0 0.0 4.8 0.00 0.00 0.00 63 1014.2
20260507022511 3 273 0.0 6.4 0.00 0.00 0.00 62 1014.2
20260507022013 3 273 1.6 6.4 0.00 0.00 0.00 61 1014.3
20260507021531 3 0 0.0 4.8 0.00 0.00 0.00 63 1014.2
20260507021015 3 224 0.0 4.8 0.00 0.00 0.00 61 1014.2
20260507020515 3 0 0.0 4.8 0.00 0.00 0.00 61 1014.1
20260507020029 3 0 0.0 4.8 0.00 0.00 0.00 61 1014.1
20260507015511 3 267 1.6 4.8 0.00 0.00 0.00 61 1014.1
20260507015017 3 0 1.6 8.0 0.00 0.00 0.00 62 1014.1
20260507014530 3 267 1.6 11.3 0.00 0.00 0.00 61 1014.0
20260507014011 3 267 3.2 11.3 0.00 0.00 0.00 61 1014.1
20260507013510 3 259 3.2 11.3 0.00 0.00 0.00 60 1014.0
20260507013029 3 229 3.2 11.3 0.00 0.00 0.00 61 1014.0
20260507012509 3 270 3.2 9.7 0.00 0.00 0.00 60 1014.1
20260507012010 3 290 3.2 6.4 0.00 0.00 0.00 60 1014.1
20260507011538 3 252 1.6 6.4 0.00 0.00 0.00 60 1014.0
20260507011011 4 0 1.6 9.7 0.00 0.00 0.00 60 1014.0
20260507010512 4 270 3.2 9.7 0.00 0.00 0.00 60 1014.1
20260507010035 4 267 3.2 9.7 0.00 0.00 0.00 60 1014.0
20260507005512 4 267 0.0 4.8 0.00 0.00 0.00 60 1014.0
20260507005010 4 0 1.6 6.4 0.00 0.00 0.00 59 1013.9
20260507004536 4 267 1.6 11.3 0.00 0.00 0.00 59 1013.9
20260507004011 4 267 3.2 12.9 0.00 0.00 0.00 58 1014.0
20260507003516 4 270 4.8 12.9 0.00 0.00 0.00 58 1013.9
20260507003030 4 259 3.2 12.9 0.00 0.00 0.00 58 1013.9
20260507002511 4 273 3.2 11.3 0.00 0.00 0.00 58 1014.0
20260507002017 4 265 3.2 11.3 0.00 0.00 0.00 59 1013.9
20260507001530 4 264 3.2 11.3 0.00 0.00 0.00 59 1013.9
20260507001012 4 275 3.2 11.3 0.00 0.00 0.00 58 1013.9
20260507000514 4 259 3.2 9.7 0.00 0.00 0.00 58 1014.0
20260507000032 4 276 3.2 11.3 0.00 0.00 0.00 59 1014.0
20260506235511 4 273 3.2 12.9 0.00 0.00 0.00 58 1014.0
20260506235012 4 269 4.8 12.9 0.00 0.00 0.00 58 1014.1
20260506234530 4 286 6.4 12.9 0.00 0.00 0.00 58 1014.0
20260506234011 4 259 4.8 12.9 0.00 0.00 0.00 58 1014.1
20260506233510 4 271 4.8 12.9 0.00 0.00 0.00 59 1014.1
20260506233031 4 248 3.2 12.9 0.00 0.00 0.00 60 1014.1
20260506232511 4 248 4.8 12.9 0.00 0.00 0.00 59 1014.1
20260506232013 4 281 6.4 12.9 0.00 0.00 0.00 59 1014.1
20260506231529 4 256 4.8 14.5 0.00 0.00 0.00 59 1014.2
20260506231010 5 265 8.0 14.5 0.00 0.00 0.00 59 1014.1
20260506230512 5 274 4.8 14.5 0.00 0.00 0.00 60 1014.1
20260506230036 5 265 3.2 14.5 0.00 0.00 0.00 59 1014.1
20260506225513 5 286 3.2 12.9 0.00 0.00 0.00 59 1014.1
20260506225015 5 275 4.8 12.9 0.00 0.00 0.00 59 1014.1
20260506224534 5 323 4.8 14.5 0.00 0.00 0.00 59 1014.1
20260506224012 5 269 6.4 14.5 0.00 0.00 0.00 59 1014.1
20260506223517 5 246 4.8 14.5 0.00 0.00 0.00 59 1013.9
20260506223027 5 257 6.4 14.5 0.00 0.00 0.00 57 1014.0
20260506222511 5 270 4.8 14.5 0.00 0.00 0.00 57 1013.9
20260506222013 5 259 6.4 14.5 0.00 0.00 0.00 57 1013.9
20260506221531 5 267 6.4 14.5 0.00 0.00 0.00 58 1013.9
20260506221009 5 258 3.2 11.3 0.00 0.00 0.00 59 1013.9
20260506220511 5 227 4.8 11.3 0.00 0.00 0.00 59 1013.9
20260506220038 5 190 4.8 16.1 0.00 0.00 0.00 59 1013.9
20260506215507 5 250 3.2 16.1 0.00 0.00 0.00 58 1013.9
20260506215012 5 276 6.4 14.5 0.00 0.00 0.00 57 1013.9
20260506214531 5 242 6.4 12.9 0.00 0.00 0.00 57 1013.9
20260506214011 5 265 4.8 16.1 0.00 0.00 0.00 58 1014.0
20260506213510 5 259 4.8 16.1 0.00 0.00 0.00 56 1013.9
20260506213032 5 274 3.2 14.5 0.00 0.00 0.00 59 1013.9
20260506212514 5 262 8.0 14.5 0.00 0.00 0.00 55 1014.0
20260506212013 5 263 3.2 12.9 0.00 0.00 0.00 58 1013.9
20260506211533 5 255 1.6 12.9 0.00 0.00 0.00 59 1014.0